Location: Pouilly
(47.2624°N, 4.5558°E)
Time: 07:49:03
(UTC+00:00)

NPP - Pass Details

Date: 07 June 2020
Orbit: 826 x 828 km, 98.7° (Epoch: 07 July)

Event Time Altitude Azimuth Distance (km) Brightness Sun altitude
Rises 01:11:20 0° 17° (NNE) 3,379 8.6 -17.0°
Reaches altitude 10° 01:13:45 10° 22° (NNE) 2,441 7.4 -16.9°
Maximum altitude 01:19:04 56° 101° (E) 976 4.1 -16.5°
Enters shadow 01:22:36 21° 173° (S) 1,780 4.9 -16.3°
